User: anonymous   Login
Location: Unspecified
(51.0950°N, 12.9690°E)
Time: 22:22:17
(UTC+00:00)
Language:

BUGSAT 1 - Orbit

View from above orbital plane
View from above orbital plane
View from above satellite
View from above satellite

Ground track
Ground track

The orbit data is extracted from the following two-line orbital elements,

1 40014U 14033E   24108.91095619  .00011267  00000-0  82967-3 0  9997
2 40014  98.1338 147.4859 0035283 337.5938  22.3743 15.03032583536588
Epoch (UTC): 17 April 2024 21:51:46
Eccentricity: 0.0035283
inclination: 98.1338°
perigee height: 533 km
apogee height: 582 km
right ascension of ascending node: 147.4859°
argument of perigee: 337.5938°
revolutions per day: 15.03032583
mean anomaly at epoch: 22.3743°
orbit number at epoch: 53658

The dashed part of the orbit path shows where the satellite is in the earth's shadow,  

DLR